Hourly Data Report for September 09, 2017

All times are specified in Local Standard Time (LST). Add 1 hour to adjust for Daylight Saving Time where and when it is observed.

COMOX A
BRITISH COLUMBIA

49°43'00.000" N
124°54'00.000" W
25.60 m
1021830
71893
YQQ

Download Data

Hourly Data (September 2017)
Hourly Data Report for September 9, 2017
Temp Definition
°C
Dew Point Temp Definition
°C
Rel Hum Definition
%
Wind Dir Definition
10's deg

Wind Spd Definition
km/h
Visibility Definition
km
Stn Press Definition
kPa
Hmdx Definition


Wind Chill Definition


Weather Definition


TIME
00:00 16.1 12.3 78   0 32.2 100.93     Cloudy
01:00 15.9 11.7 76 36 4 32.2 100.88     Cloudy
02:00 15.9 12.9 82   0 32.2 100.87     Cloudy
03:00 15.0 12.4 84 18 6 32.2 100.89     Cloudy
04:00 15.6 12.2 80   0 32.2 100.95     Cloudy
05:00 15.7 9.9 68 17 4 32.2 101.01     Cloudy
06:00 15.6 10.0 69 18 11 32.2 101.03     Rain Showers
07:00 14.8 10.3 74 16 11 32.2 101.11     Rain
08:00 15.0 10.3 73 15 24 19.3 101.13     Rain
09:00 13.8 11.9 88 14 24 11.3 101.18     Rain
10:00 13.9 12.1 89 16 20 12.9 101.20     Rain
11:00 14.0 11.8 87 17 26 16.1 101.25     Rain
12:00 14.4 12.1 86 14 37 16.1 101.23     Cloudy
13:00 15.1 12.2 83 14 33 19.3 101.25     Cloudy
14:00 15.6 12.6 82 14 37 24.1 101.28     Mostly Cloudy
15:00 15.7 12.2 80 14 30 32.2 101.35     Mostly Cloudy
16:00 15.3 13.2 87 15 20 32.2 101.42     Mostly Cloudy
17:00 15.8 12.5 81 15 22 32.2 101.50     Cloudy
18:00 15.1 12.3 83 15 15 32.2 101.56     Cloudy
19:00 15.2 12.4 83 15 7 32.2 101.66     Cloudy
20:00 14.7 12.6 87   0 32.2 101.72     Mostly Cloudy
21:00 14.4 12.6 89 16 7 32.2 101.79     Mostly Cloudy
22:00 13.6 12.3 92 35 11 32.2 101.83     Mostly Cloudy
23:00 13.9 12.5 91 32 4 32.2 101.93     Mostly Cloudy

Notes on Data Quality.

Legend

  • E = Estimated
  • M = Missing
  • NA = Not Available
  • ‡ = Partner data that is not subject to review by the National Climate Archives
Date modified: